Flag for U.S.A. Weather past 2 weeks in Jackson, Wyoming, U.S.A.

Now
70 °F

Partly sunny.


Feels Like: 70 °F
Forecast: 45 / 73 °F
Wind: No wind

Location: Jackson Hole

Current Time: Sep 18, 2014 at 2:24:34 PM

Latest Report: Sep 18, 2014 at 1:51 PM


Visibility: 10 mi

Pressure: 30.01 "Hg

Humidity: 53%

Dew point: 52 °F

Location of JacksonLocation

Historic Weather in Jackson — Graph

°F

Jackson temperature yesterday

Maximum temperature yesterday: 77 °F (at 2:51 PM)
Minimum temperature yesterday: 41 °F (at 4:35 AM)
Average temperature yesterday: 54 °F

Past Weeks' High & Low Weather Summary

 TemperatureHumidityPressure
High79 °F (Sep 15, 3:54 PM)100% (Sep 7, 4:15 AM)30.47 "Hg (Sep 7, 4:15 AM)
Low18 °F (Sep 12, 5:55 AM)9% (Sep 12, 3:55 PM)29.92 "Hg (Sep 3, 3:54 PM)
Average47 °F63%30.18 "Hg
* Reported Sep 3 1:51 PM — Sep 18 1:14 PM, Jackson, Weather by CustomWeather, © 2014

Note: Actual official high and low records may vary slightly from our data, if they occured in-between our weather recording intervals... More about our weather records

Advertising

Jackson weather history for previous 24 hours

 ConditionsComfort  
Time TempWeatherWind HumidityBarometerVisibility
1:14 PM
Sep 18
70 °FPassing clouds.3 mph46%30.02 "Hg10 mi
12:55 PM70 °FPassing clouds.No wind43%30.04 "Hg10 mi
11:51 AM63 °FPassing clouds.3 mph59%30.08 "Hg10 mi
10:51 AM54 °FPartly sunny.No wind82%30.10 "Hg10 mi
9:51 AM55 °FThunderstorms. Scattered clouds.No wind67%30.08 "Hg10 mi
8:51 AM52 °FScattered clouds.No wind72%30.08 "Hg10 mi
6:51 AM46 °FPassing clouds.No wind82%30.08 "Hg10 mi
6:35 AM46 °FPassing clouds.No wind82%30.07 "Hg10 mi
5:55 AM48 °FClear.No wind76%30.06 "Hg10 mi
5:35 AM46 °FPassing clouds.7 mph82%30.06 "Hg10 mi
5:15 AM46 °FPassing clouds.5 mph87%30.07 "Hg10 mi
4:55 AM46 °FPassing clouds.7 mph82%30.07 "Hg10 mi
4:35 AM46 °FPassing clouds.7 mph82%30.08 "Hg10 mi
4:15 AM46 °FOvercast.7 mph82%30.08 "Hg10 mi
3:55 AM45 °FPassing clouds.7 mph81%30.08 "Hg10 mi
3:35 AM45 °FClear.3 mph81%30.08 "Hg10 mi
3:15 AM45 °FClear.7 mph81%30.08 "Hg10 mi
2:55 AM45 °FClear.3 mph81%30.09 "Hg10 mi
2:35 AM46 °FClear.6 mph76%30.09 "Hg10 mi
2:15 AM45 °FClear.8 mph81%30.10 "Hg10 mi
1:55 AM45 °FClear.8 mph81%30.10 "Hg10 mi
1:35 AM46 °FClear.5 mph76%30.10 "Hg10 mi
1:15 AM46 °FClear.5 mph76%30.10 "Hg10 mi
12:55 AM48 °FClear.5 mph76%30.09 "Hg10 mi
12:35 AM46 °FClear.6 mph82%30.09 "Hg10 mi
11:55 PM
Sep 17
50 °FClear.7 mph71%30.10 "Hg10 mi
11:35 PM54 °FClear.6 mph67%30.10 "Hg10 mi
11:15 PM54 °FClear.3 mph63%30.10 "Hg10 mi
10:55 PM54 °FClear.3 mph58%30.09 "Hg10 mi
10:35 PM54 °FClear.5 mph63%30.09 "Hg10 mi
10:15 PM55 °FClear.6 mph59%30.09 "Hg10 mi
9:55 PM55 °FClear.5 mph63%30.09 "Hg10 mi
9:35 PM55 °FClear.10 mph63%30.08 "Hg10 mi
9:15 PM61 °FClear.3 mph45%30.08 "Hg10 mi
8:55 PM63 °FClear.6 mph42%30.08 "Hg10 mi
8:35 PM63 °FClear.7 mph45%30.07 "Hg10 mi
7:51 PM68 °FSunny.No wind35%30.07 "Hg10 mi
6:51 PM73 °FSunny.No wind31%30.06 "Hg10 mi
4:55 PM77 °FScattered clouds.No wind26%30.07 "Hg10 mi
3:55 PM77 °FScattered clouds.12 mph24%30.09 "Hg10 mi
2:51 PM77 °FScattered clouds.5 mph28%30.10 "Hg10 mi
Weather by CustomWeather, © 2014

See weather overviewHow to use our weather pages